Location: ???????
(55.3754°N, 39.3545°E)
Time: 07:49:23
(UTC+00:00)

Meteor 1-21 Rocket - Pass Details

Date: 14 April 2026
Orbit: 833 x 905 km, 81.2° (Epoch: 13 May)

Event Time Altitude Azimuth Distance (km) Brightness Sun altitude
Rises 17:03:22 0° 346° (NNW) 3,405 8.0 -5.8°
Reaches altitude 10° 17:05:50 10° 351° (N) 2,472 7.2 -6.1°
Maximum altitude 17:11:21 58° 70° (ENE) 994 4.4 -6.8°
Drops below altitude 10° 17:16:56 10° 149° (SSE) 2,496 6.1 -7.5°
Enters shadow 17:18:25 - 152° (SSE) 3,060 6.6 -7.7°
